Weather observations for the past three days for
Brigham City Regional Airport
Metric (Imperial)
Date Time (mdt) Wind (kph) Vis. (km) Weather Sky Cond. Temperature (ºC) Relative Humidity Wind Chill (°C) Heat Index (°C) Pressure Precipitation (cm)
Air Dwpt 6 hour altimeter (cm) sea level (mb) 1 hr 3 hr 6 hr
Max. Min.
04 18:55 SW 17 16.09 Fair CLR 23 3 27% 75.44 0.0
04 18:15 NW 7 16.09 Fair CLR 23 2 25% 75.49 0.0
04 17:55 SW 20 16.09 A Few Clouds FEW110 23 5 24.4 20.9 31% 75.46 0.0
04 17:35 SW 11 16.09 Fair CLR 24 1 22% 25 75.46 0.0
04 17:15 Vrbl 4 16.09 Fair CLR 24 -1 19% 24 75.46 0.0
04 16:55 Vrbl 7 16.09 Fair CLR 24 1 22% 25 75.46 0.0
04 16:35 Vrbl 7 16.09 Fair CLR 24 1 22% 25 75.46 0.0
04 16:15 SW 15 16.09 Fair CLR 24 2 24% 25 75.46 0.0
04 15:55 S 15 16.09 Fair CLR 24 3 25% 25 75.49 0.0
04 15:35 Vrbl 9 16.09 Fair CLR 24 2 24% 25 75.51 0.0
04 15:15 Vrbl 4 16.09 Fair CLR 23 1 23% 75.54 0.0
04 14:55 S 11 16.09 Fair CLR 23 1 23% 75.57 0.0
04 14:35 Vrbl 4 16.09 Fair CLR 23 2 25% 75.59 0.0
04 14:15 S 9 16.09 Fair CLR 23 3 27% 75.59 0.0
04 13:55 S 7 16.09 Fair CLR 23 2 25% 75.62 0.0
04 13:35 Vrbl 6 16.09 Fair CLR 23 2 25% 75.64 0.0
04 13:15 S 11 16.09 Fair CLR 22 3 29% 75.64 0.0
04 12:55 S 9 16.09 Fair CLR 22 3 29% 75.67 0.0
04 12:35 Vrbl 4 16.09 Fair CLR 22 2 27% 75.69 0.0
04 12:15 Vrbl 9 16.09 Fair CLR 22 2 27% 75.72 0.0
04 11:55 S 13 16.09 Fair CLR 21 3 21.6 8.7 31% 75.72 0.0
04 11:35 Vrbl 9 16.09 Fair CLR 21 2 29% 75.74 0.0
04 11:15 SW 13 16.09 Fair CLR 21 4 33% 75.74 0.0
04 10:55 Vrbl 7 16.09 Fair CLR 20 5 38% 75.74 0.0
04 10:35 SW 7 16.09 Fair CLR 19 4 37% 75.74 0.0
04 10:15 SW 6 16.09 Fair CLR 19 4 37% 75.74 0.0
04 09:55 SE 6 16.09 Fair CLR 19 4 37% 75.74 0.0
04 09:35 Vrbl 4 16.09 Fair CLR 19 4 37% 75.77 0.0
04 09:15 Vrbl 6 16.09 Fair CLR 17 3 39% 75.77 0.0
04 08:55 NW 7 16.09 Fair CLR 16 5 48% 75.77 0.0
04 08:35 NW 7 16.09 Fair CLR 15 6 55% 75.77 0.0
04 08:15 NW 11 16.09 Fair CLR 12 5 63% 75.77 0.0
04 07:55 NW 9 16.09 Fair CLR 11 5 67% 75.79 0.0
04 07:35 NW 9 16.09 Fair CLR 10 4 67% 9 75.77 0.0
04 07:15 W 9 16.09 Fair CLR 13 2 47% 75.77 0.0
04 06:55 Calm 16.09 Fair CLR 14 2 44% 75.77 0.0
04 06:35 NE 6 16.09 Fair CLR 11 2 54% 75.77 0.0
04 06:15 Vrbl 4 16.09 A Few Clouds FEW120 13 1 44% 75.74 0.0
04 05:55 Vrbl 11 16.09 A Few Clouds FEW120 11 3 13.2 6.3 58% 75.77 0.0
04 05:35 N 6 16.09 Fair CLR 13 3 51% 75.77 0.0
04 05:15 N 13 16.09 Fair CLR 10 3 62% 8 75.77 0.0
04 04:55 NW 6 16.09 Fair CLR 9 2 62% 75.77 0.0
04 04:35 Vrbl 6 16.09 Fair CLR 7 3 76% 75.77 0.0
04 04:15 S 15 G 26 16.09 Fair CLR 8 3 71% 6 75.74 0.0
04 03:55 NW 6 16.09 Fair CLR 8 2 66% 75.69 0.0
04 03:35 N 6 16.09 Fair CLR 8 2 66% 75.69 0.0
04 03:15 NW 7 16.09 Fair CLR 9 4 71% 8 75.69 0.0
04 02:55 N 2 16.09 Fair CLR 8 4 76% 75.69 0.0
04 02:35 NW 7 16.09 Fair CLR 10 2 58% 9 75.69 0.0
04 02:15 Vrbl 4 16.09 Fair CLR 9 2 62% 75.69 0.0
04 01:55 NW 6 16.09 Fair CLR 10 3 62% 75.69 0.0
04 01:35 Vrbl 6 16.09 Fair CLR 9 3 66% 75.72 0.0
04 01:15 W 4 16.09 Fair CLR 10 2 58% 75.72 0.0
04 00:55 W 9 16.09 Fair CLR 11 1 50% 75.72 0.0
04 00:35 NW 7 16.09 Fair CLR 11 3 58% 75.72 0.0
04 00:08 NW 4 16.09 Fair CLR 13 3 51% 75.72 0.0
03 23:55 Calm 16.09 Fair CLR 12 4 25 12.2 58% 75.72 0.0
03 23:35 Vrbl 2 16.09 Fair CLR 13 2 47% 75.72 0.0
03 23:15 Vrbl 4 16.09 Fair CLR 14 1 41% 75.74 0.0
03 22:55 Vrbl 4 16.09 Fair CLR 15 1 39% 75.74 0.0
03 22:35 NW 9 16.09 Fair CLR 17 -1 30% 75.74 0.0
03 22:15 S 4 16.09 Fair CLR 16 2 39% 75.74 0.0
03 21:55 SE 6 16.09 Fair CLR 16 3 42% 75.74 0.0
03 21:35 E 4 16.09 Fair CLR 17 6 49% 75.74 0.0
03 21:15 NE 4 16.09 Fair CLR 17 7 52% 75.74 0.0
03 20:55 SE 7 16.09 Fair CLR 17 5 45% 75.74 0.0
03 20:35 SE 6 12.87 Fair CLR 20 2 30% 75.74 0.0
03 20:15 S 6 16.09 Fair CLR 20 2 30% 75.74 0.0
03 19:55 SE 6 16.09 Fair CLR 22 0 23% 75.74 0.0
03 19:35 SE 6 16.09 Fair CLR 23 -2 19% 75.77 0.0
03 19:15 SE 6 16.09 Fair CLR 24 -6 13% 24 75.79 0.0
03 18:55 E 2 16.09 Fair CLR 24 -9 10% 24 75.79 0.0
03 18:35 Vrbl 2 16.09 Fair CLR 24 -9 10% 24 75.82 0.0
03 18:15 SW 4 16.09 Fair CLR 25 -8 11% 24 75.82 0.0
03 17:55 S 7 16.09 Fair CLR 24 -6 25 19.3 13% 24 75.84 0.0
03 17:35 Vrbl 6 16.09 Fair CLR 24 -7 12% 24 75.84 0.0
03 17:15 S 7 16.09 Fair CLR 24 -6 13% 24 75.87 0.0
03 16:35 S 11 16.09 Fair CLR 24 -6 13% 24 75.9 0.0
03 16:15 Vrbl 6 16.09 Fair CLR 24 -5 14% 24 75.92 0.0
03 15:55 SW 7 16.09 Fair CLR 24 -5 14% 24 75.95 0.0
03 15:35 Vrbl 7 16.09 Fair CLR 24 -4 15% 24 75.97 0.0
03 15:15 Vrbl 4 16.09 Fair CLR 23 -5 15% 76 0.0
03 14:55 SE 11 16.09 Fair CLR 23 -7 13% 76.02 0.0
03 14:35 Vrbl 11 16.09 Fair CLR 23 -4 16% 76.05 0.0
03 14:15 Vrbl 4 16.09 Fair CLR 23 -4 16% 76.05 0.0
03 13:55 S 11 16.09 Fair CLR 23 -2 19% 76.07 0.0
03 13:35 SW 9 16.09 Fair CLR 24 -3 16% 24 76.1 0.0
03 13:15 Calm 16.09 Fair CLR 23 0 22% 76.12 0.0
03 12:55 Vrbl 4 16.09 Fair CLR 22 0 23% 76.15 0.0
03 12:35 S 7 16.09 Fair CLR 22 0 23% 76.17 0.0
03 12:15 Vrbl 4 16.09 Fair CLR 21 -2 21% 76.17 0.0
03 11:55 Vrbl 2 16.09 Fair CLR 20 -4 20 3.3 20% 76.2 0.0
03 11:35 Calm 16.09 Fair CLR 19 -2 24% 76.23 0.0
03 11:15 Vrbl 4 16.09 Fair CLR 18 -1 28% 76.23 0.0
03 10:35 Vrbl 4 16.09 Fair CLR 17 4 42% 76.25 0.0
03 10:15 NE 6 16.09 Fair CLR 15 3 45% 76.25 0.0
03 09:55 NW 6 16.09 Fair CLR 14 3 48% 76.25 0.0
03 09:35 N 6 16.09 Fair CLR 13 4 55% 76.25 0.0
03 09:15 N 9 16.09 Fair CLR 12 3 54% 76.25 0.0
03 08:55 N 6 16.09 Fair CLR 10 4 67% 76.25 0.0
03 08:35 NW 7 16.09 Fair CLR 8 3 71% 7 76.25 0.0
03 08:15 NW 11 16.09 Fair CLR 7 1 66% 5 76.25 0.0
03 07:55 N 7 16.09 Fair CLR 6 1 71% 5 76.28 0.0
03 07:35 NW 7 16.09 Fair CLR 5 0 70% 4 76.25 0.0
03 07:15 N 2 16.09 Fair CLR 4 2 87% 76.23 0.0
03 06:55 W 2 16.09 Fair CLR 3 2 93% 76.23 0.0
03 06:35 N 7 16.09 Fair CLR 4 1 81% 2 76.23 0.0
03 06:15 NW 6 16.09 Fair CLR 4 1 81% 76.23 0.0
03 05:55 NW 6 16.09 Fair CLR 6 1 9.6 5.1 71% 76.2 0.0
03 05:35 N 4 16.09 Fair CLR 5 1 76% 76.23 0.0
03 05:15 N 6 16.09 Fair CLR 6 2 76% 76.25 0.0
03 04:35 W 6 16.09 Fair CLR 6 4 87% 76.25 0.0
03 04:15 NW 4 16.09 Fair CLR 6 4 87% 76.25 0.0
03 03:55 N 4 16.09 Fair CLR 6 4 87% 76.25 0.0
03 03:35 N 2 16.09 Fair CLR 6 4 87% 76.25 0.0
03 03:15 Calm 16.09 Fair CLR 7 3 76% 76.25 0.0
03 02:55 N 2 16.09 Fair CLR 7 2 71% 76.25 0.0
03 02:35 NW 6 16.09 Fair CLR 8 1 62% 76.25 0.0
03 02:15 W 6 16.09 Fair CLR 7 2 71% 76.25 0.0
03 01:55 NW 6 16.09 Fair CLR 9 2 62% 76.25 0.0
03 01:35 NW 6 16.09 Fair CLR 9 1 58% 76.25 0.0
03 01:15 Vrbl 6 16.09 Fair CLR 9 2 62% 76.25 0.0
03 00:55 E 6 16.09 Fair CLR 8 5 82% 76.25 0.0
03 00:35 Calm 16.09 Fair CLR 9 3 66% 76.25 0.0
03 00:15 N 9 16.09 Fair CLR 9 2 62% 8 76.25 0.0
02 23:55 NW 17 16.09 Fair CLR 9 1 21.8 9.3 58% 7 76.25 0.0
02 23:35 NW 11 16.09 Fair CLR 12 1 47% 76.25 0.0
02 23:15 SE 7 16.09 Fair CLR 12 2 51% 76.25 0.0
02 22:55 E 4 16.09 Fair CLR 13 0 41% 76.25 0.0
02 22:35 SE 9 16.09 Fair CLR 12 2 51% 76.25 0.0
02 22:15 SE 13 16.09 Fair CLR 12 4 58% 76.28 0.0
02 21:55 SE 9 16.09 Fair CLR 13 4 55% 76.28 0.0
02 21:35 SE 9 16.09 Fair CLR 14 4 51% 76.25 0.0
02 21:15 SE 9 16.09 Fair CLR 14 3 48% 76.25 0.0
02 20:55 E 9 16.09 Fair CLR 15 4 48% 76.25 0.0
02 20:35 E 4 16.09 Fair CLR 18 4 40% 76.25 0.0
02 20:15 E 7 16.09 Fair CLR 19 4 37% 76.25 0.0
02 19:55 NE 6 16.09 Fair CLR 20 0 26% 76.25 0.0
02 19:35 NE 4 16.09 Fair CLR 21 -4 18% 76.25 0.0
02 19:15 N 4 16.09 Fair CLR 20 -5 18% 76.25 0.0
02 18:55 Calm 16.09 Fair CLR 21 -6 16% 76.25 0.0
02 18:35 Calm 16.09 Fair CLR 21 -5 17% 76.28 0.0
02 18:15 W 7 16.09 Fair CLR 21 -5 17% 76.28 0.0
02 17:35 S 11 16.09 Fair CLR 22 -3 19% 76.3 0.0
02 17:15 S 11 16.09 Fair CLR 21 -5 17% 76.3 0.0
02 16:55 Vrbl 6 16.09 Fair CLR 22 -5 16% 76.33 0.0
02 16:35 S 9 16.09 Fair CLR 22 -5 16% 76.35 0.0
02 16:15 S 11 16.09 Fair CLR 22 -5 16% 76.38 0.0
02 15:55 Vrbl 9 16.09 Fair CLR 21 -5 17% 76.4 0.0
02 15:35 SW 9 16.09 Fair CLR 21 -4 18% 76.43 0.0
02 15:15 Vrbl 9 16.09 Fair CLR 21 -4 18% 76.45 0.0
02 14:35 Vrbl 2 16.09 Fair CLR 21 -4 18% 76.48 0.0
02 14:15 SW 11 16.09 Fair CLR 20 -4 20% 76.5 0.0
02 13:55 S 15 16.09 Fair CLR 20 -4 20% 76.5 0.0
02 13:35 SW 13 16.09 Fair CLR 20 -2 23% 76.53 0.0
02 13:15 S 13 16.09 Fair CLR 20 -2 23% 76.56 0.0
02 12:35 S 7 16.09 Fair CLR 20 -1 24% 76.58 0.0
02 12:15 E 4 16.09 Fair CLR 19 0 28% 76.61 0.0
02 11:55 N 6 16.09 Fair CLR 19 0 18.9 3.1 28% 76.61 0.0
02 11:35 S 4 16.09 Fair CLR 18 0 30% 76.61 0.0
02 11:15 N 6 16.09 Fair CLR 18 1 32% 76.61 0.0
02 10:55 Vrbl 2 16.09 Fair CLR 17 1 34% 76.63 0.0
02 10:35 E 6 16.09 Fair CLR 16 1 36% 76.63 0.0
02 10:15 Vrbl 2 16.09 Fair CLR 15 1 39% 76.63 0.0
02 09:55 Vrbl 4 16.09 Fair CLR 14 3 48% 76.61 0.0
02 09:35 Calm 16.09 Fair CLR 12 6 67% 76.61 0.0
02 09:15 NE 4 16.09 Light Rain CLR 10 5 71% 76.61 0.0
02 08:55 Vrbl 7 16.09 Fair CLR 10 4 67% 9 76.63 0.0
02 08:35 N 4 16.09 Fair CLR 8 3 71% 76.63 0.0
02 08:15 NW 4 16.09 Fair CLR 7 3 76% 76.63 0.0
02 07:55 Calm 16.09 Fair CLR 6 2 76% 76.63 0.0
02 07:35 W 6 16.09 Fair CLR 5 1 76% 76.61 0.0
02 06:55 N 6 16.09 Fair CLR 3 1 87% 76.61 0.0
02 06:35 NW 6 16.09 Fair CLR 4 1 81% 76.58 0.0
02 06:15 N 7 16.09 Fair CLR 4 2 87% 2 76.56 0.0
02 05:55 NE 4 16.09 Fair CLR 4 2 10.9 3.2 87% 76.56 0.0
02 05:35 NE 4 16.09 Fair CLR 3 2 93% 76.58 0.0
02 05:15 Calm 16.09 Fair CLR 4 2 87% 76.58 0.0
02 04:55 Vrbl 2 16.09 Fair CLR 6 1 71% 76.58 0.0
02 04:35 Vrbl 4 16.09 Fair CLR 5 2 81% 76.58 0.0
02 04:15 NW 6 16.09 Fair CLR 6 2 76% 76.56 0.0
02 03:55 NW 4 16.09 Fair CLR 6 4 87% 76.56 0.0
02 03:35 N 4 16.09 Fair CLR 7 4 81% 76.56 0.0
02 03:15 N 6 16.09 Fair CLR 6 3 81% 76.56 0.0
02 02:55 NE 2 16.09 Fair CLR 6 4 87% 76.56 0.0
02 02:35 NW 2 16.09 Fair CLR 7 3 76% 76.56 0.0
02 02:15 Calm 16.09 Fair CLR 7 2 71% 76.56 0.0
02 01:55 SE 2 16.09 Fair CLR 8 2 66% 76.56 0.0
02 01:35 SE 4 16.09 Fair CLR 8 2 66% 76.56 0.0
02 01:15 Vrbl 2 16.09 Fair CLR 8 2 66% 76.56 0.0
02 00:55 N 4 16.09 Fair CLR 8 2 66% 76.56 0.0
02 00:35 Vrbl 11 16.09 Fair CLR 9 1 58% 8 76.56 0.0
02 00:15 NW 7 16.09 Fair CLR 10 1 54% 9 76.53 0.0
01 23:55 S 6 16.09 Fair CLR 11 2 20.1 9.4 54% 76.53 0.0
01 23:35 SE 2 16.09 Fair CLR 10 3 62% 76.5 0.0
01 23:15 Vrbl 4 16.09 Fair CLR 12 0 44% 76.5 0.0
01 22:55 W 7 16.09 Fair CLR 13 -1 38% 76.5 0.0
01 22:35 SW 6 16.09 Fair CLR 14 -3 31% 76.48 0.0
01 22:15 W 4 16.09 Fair CLR 13 1 44% 76.48 0.0
01 21:55 N 6 16.09 Fair CLR 15 -1 34% 76.48 0.0
01 21:35 SE 6 16.09 Fair CLR 15 -1 34% 76.45 0.0
01 21:15 S 6 16.09 Fair CLR 14 1 41% 76.43 0.0
01 20:55 E 7 16.09 Fair CLR 15 0 36% 76.43 0.0
01 20:35 N 4 16.09 Fair CLR 16 0 34% 76.4 0.0
01 20:15 NW 11 16.09 Fair CLR 18 -4 22% 76.4 0.0
01 19:55 NW 13 16.09 Fair CLR 18 -1 28% 76.38 0.0
01 19:35 NW 17 16.09 Fair CLR 19 -2 24% 76.38 0.0
01 19:15 NW 9 16.09 Fair CLR 20 -3 21% 76.38 0.0
Date Time (mdt) Wind (kph) Vis. (km) Weather Sky Cond. Air Dwpt Max. Min. Relative Humidity Wind Chill (°C) Heat Index (°C) altimeter (cm) sea level (mb) 1 hr 3 hr 6 hr
6 hour
Temperature (ºC) Pressure Precipitation (cm)